Weather History for Davenport, IA

Change the Weather History Date:

Monday, November 19, 2012

  Actual Average Record
Temperature  
Mean Temperature 48 °F 37 °F  
Max Temperature 54 °F 46 °F 71 °F (1975)
Min Temperature 41 °F 28 °F 17 °F (1951)
Degree Days  
Heating Degree Days 17 28  
Month to date heating degree days 436 444  
Since 1 July heating degree days 1096 1004  
Cooling Degree Days 0 0  
Month to date cooling degree days 0 0  
Year to date cooling degree days 1114 786  
Moisture  
Dew Point 40 °F    
Average Humidity 68    
Maximum Humidity 80    
Minimum Humidity 56    
Precipitation  
Precipitation 0.00 in 0.07 in 0.31 in (1983)
Month to date precipitation 0.90 1.69  
Year to date precipitation 27.68 33.54  
Snow  
Snow 0.00 in - - ()
Month to date snowfall T  
Since 1 July snowfall T  
Since 1 September snowfall T  
Snow Depth 0.00 in    
Sea Level Pressure  
Sea Level Pressure 30.15 in    
Wind  
Wind Speed 8 mph (SSE)    
Max Wind Speed 16 mph    
Max Gust Speed 21 mph    
Visibility 9 miles    
Events      
T = Trace of Precipitation, MM = Missing Value Source: NWS Daily Summary

Daily Weather History Graph

Daily Weather History Graph

Search for Another Location

Airport:

Trip Planner

Search our weather history database for the weather conditions in past years. The results will help you decide how hot, cold, wet, or windy it might be!

Date:

Astronomy

Nov. 19, 2012 Rise Set
Actual Time 6:56 AM CST 4:38 PM CST
Civil Twilight 6:26 AM CST 5:08 PM CST
Nautical Twilight 5:52 AM CST 5:42 PM CST
Astronomical Twilight 5:19 AM CST 6:15 PM CST
Moon 11:57 AM CST (11/19) 11:08 PM CST (11/19)
Length of Visible Light 10h 42m
Length of Day
9h 41m
Waxing Crescent, 41% of the Moon is Illuminated
Nov 19
Waxing Crescent
Nov 20
First Quarter
Nov 28
Full
Dec 6
Last Quarter
Dec 13
New

Hourly Weather History & Observations

Time (CST) Temp. Windchill Dew Point Humidity Pressure Visibility Wind Dir Wind Speed Gust Speed Precip Events Conditions
12:52 AM 46.9 °F - 34.0 °F 61% 30.24 in 9.0 mi SSE 10.4 mph - N/A   Clear
1:52 AM 48.0 °F - 34.0 °F 58% 30.23 in 10.0 mi South 8.1 mph - N/A   Clear
2:52 AM 44.1 °F 41.5 °F 34.0 °F 68% 30.24 in 9.0 mi ESE 4.6 mph - N/A   Clear
3:52 AM 42.1 °F 38.4 °F 34.0 °F 73% 30.23 in 8.0 mi SE 5.8 mph - N/A   Clear
4:52 AM 43.0 °F 38.8 °F 34.0 °F 71% 30.22 in 8.0 mi SE 6.9 mph - N/A   Clear
5:52 AM 42.1 °F 37.1 °F 34.0 °F 73% 30.22 in 8.0 mi SSE 8.1 mph - N/A   Clear
6:52 AM 43.0 °F 38.2 °F 34.0 °F 71% 30.20 in 9.0 mi SE 8.1 mph - N/A   Clear
7:52 AM 44.1 °F 41.5 °F 34.0 °F 68% 30.22 in 7.0 mi SE 4.6 mph - N/A   Clear
8:52 AM 46.0 °F 41.4 °F 35.1 °F 66% 30.22 in 8.0 mi SSE 9.2 mph - N/A   Scattered Clouds
9:52 AM 48.9 °F - 36.0 °F 61% 30.21 in 9.0 mi SSE 9.2 mph - N/A   Overcast
10:52 AM 51.1 °F - 39.0 °F 63% 30.20 in 10.0 mi South 11.5 mph - N/A   Overcast
11:52 AM 52.0 °F - 42.1 °F 69% 30.17 in 10.0 mi South 13.8 mph - N/A   Mostly Cloudy
12:52 PM 53.1 °F - 43.0 °F 69% 30.14 in 10.0 mi South 13.8 mph - N/A   Scattered Clouds
1:16 PM 51.8 °F - 42.8 °F 71% 30.13 in 10.0 mi South 13.8 mph - N/A   Overcast
1:52 PM 51.1 °F - 44.1 °F 77% 30.12 in 9.0 mi South 12.7 mph 20.7 mph N/A   Overcast
2:23 PM 51.8 °F - 44.6 °F 76% 30.10 in 9.0 mi SSE 13.8 mph - N/A   Overcast
2:52 PM 51.1 °F - 44.1 °F 77% 30.10 in 9.0 mi SSE 12.7 mph - N/A   Mostly Cloudy
3:26 PM 51.8 °F - 44.6 °F 76% 30.10 in 9.0 mi South 9.2 mph - N/A   Overcast
3:35 PM 51.8 °F - 44.6 °F 76% 30.10 in 9.0 mi South 8.1 mph - N/A   Overcast
3:52 PM 51.1 °F - 44.1 °F 77% 30.11 in 9.0 mi South 9.2 mph - N/A   Overcast
4:42 PM 48.2 °F - 42.8 °F 82% 30.10 in 7.0 mi SSE 5.8 mph - N/A   Overcast
4:52 PM 48.9 °F - 43.0 °F 80% 30.12 in 8.0 mi South 3.5 mph - N/A   Overcast
5:16 PM 50.0 °F - 42.8 °F 76% 30.10 in 9.0 mi South 8.1 mph - N/A   Overcast
5:36 PM 50.0 °F - 42.8 °F 76% 30.11 in 8.0 mi South 6.9 mph - N/A   Overcast
5:52 PM 50.0 °F - 43.0 °F 77% 30.12 in 8.0 mi South 8.1 mph - N/A   Overcast
6:52 PM 50.0 °F - 43.0 °F 77% 30.12 in 8.0 mi South 8.1 mph - N/A   Overcast
7:52 PM 50.0 °F - 44.1 °F 80% 30.12 in 8.0 mi South 4.6 mph - N/A   Overcast
8:18 PM 48.2 °F - 42.8 °F 82% 30.10 in 8.0 mi South 6.9 mph - N/A   Overcast
8:52 PM 48.9 °F - 43.0 °F 80% 30.11 in 8.0 mi South 6.9 mph - N/A   Overcast
9:52 PM 48.9 °F - 43.0 °F 80% 30.10 in 8.0 mi South 8.1 mph - N/A   Overcast
10:52 PM 50.0 °F - 43.0 °F 77% 30.09 in 8.0 mi South 5.8 mph - N/A   Overcast
11:52 PM 48.9 °F - 44.1 °F 83% 30.08 in 8.0 mi South 5.8 mph - N/A   Overcast